| time (UTC) | temp F | wind direction | speed knots | gust knots | rain 1hr in | rain 24hr in | rain mn in | humidity % | barometer mb |
| 20260507101437 | 60 | 175 | 2.6 | 3.5 | 0.00 | 0.00 | 0.00 | 69 | |
| 20260507100936 | 60 | 175 | 2.6 | 3.5 | 0.00 | 0.00 | 0.00 | 69 | |
| 20260507100435 | 60 | 175 | 2.6 | 3.5 | 0.00 | 0.00 | 0.00 | 69 | |
| 20260507095935 | 60 | 175 | 2.6 | 3.5 | 0.00 | 0.00 | 0.00 | 69 | |
| 20260507095434 | 60 | 175 | 2.6 | 3.5 | 0.00 | 0.00 | 0.00 | 69 | |
| 20260507094933 | 60 | 175 | 2.6 | 3.5 | 0.00 | 0.00 | 0.00 | 69 | |
| 20260507094432 | 60 | 175 | 2.6 | 3.5 | 0.00 | 0.00 | 0.00 | 69 | |
| 20260507093932 | 60 | 175 | 2.6 | 3.5 | 0.00 | 0.00 | 0.00 | 69 | |
| 20260507093431 | 60 | 175 | 2.6 | 3.5 | 0.00 | 0.00 | 0.00 | 69 | |
| 20260507092930 | 60 | 175 | 2.6 | 3.5 | 0.00 | 0.00 | 0.00 | 69 | |
| 20260507092430 | 55 | 198 | 3.5 | 4.3 | 0.00 | 0.00 | 0.00 | 81 | |
| 20260507091929 | 55 | 198 | 3.5 | 4.3 | 0.00 | 0.00 | 0.00 | 81 | |
| 20260507091428 | 55 | 198 | 3.5 | 4.3 | 0.00 | 0.00 | 0.00 | 81 | |
| 20260507090927 | 55 | 198 | 3.5 | 4.3 | 0.00 | 0.00 | 0.00 | 81 | |
| 20260507090426 | 55 | 198 | 3.5 | 4.3 | 0.00 | 0.00 | 0.00 | 81 | |
| 20260507085925 | 55 | 198 | 3.5 | 4.3 | 0.00 | 0.00 | 0.00 | 81 | |
| 20260507085425 | 55 | 198 | 3.5 | 4.3 | 0.00 | 0.00 | 0.00 | 81 | |
| 20260507084924 | 55 | 198 | 3.5 | 4.3 | 0.00 | 0.00 | 0.00 | 81 | |
| 20260507084423 | 55 | 198 | 3.5 | 4.3 | 0.00 | 0.00 | 0.00 | 81 | |
| 20260507083922 | 55 | 198 | 3.5 | 4.3 | 0.00 | 0.00 | 0.00 | 81 | |
| 20260507083422 | 55 | 198 | 3.5 | 4.3 | 0.00 | 0.00 | 0.00 | 81 | |
| 20260507082921 | 55 | 198 | 3.5 | 4.3 | 0.00 | 0.00 | 0.00 | 81 | |
| 20260507082420 | 55 | 198 | 3.5 | 4.3 | 0.00 | 0.00 | 0.00 | 81 | |
| 20260507081920 | 55 | 198 | 3.5 | 4.3 | 0.00 | 0.00 | 0.00 | 81 | |
| 20260507081419 | 55 | 198 | 3.5 | 4.3 | 0.00 | 0.00 | 0.00 | 81 | |
| 20260507080918 | 55 | 198 | 3.5 | 4.3 | 0.00 | 0.00 | 0.00 | 81 | |
| 20260507080417 | 55 | 198 | 3.5 | 4.3 | 0.00 | 0.00 | 0.00 | 81 | |
| 20260507075917 | 55 | 198 | 3.5 | 4.3 | 0.00 | 0.00 | 0.00 | 81 | |
| 20260507075416 | 55 | 198 | 3.5 | 4.3 | 0.00 | 0.00 | 0.00 | 81 | |
| 20260507074915 | 55 | 198 | 3.5 | 4.3 | 0.00 | 0.00 | 0.00 | 81 | |
| 20260507074415 | 55 | 198 | 3.5 | 4.3 | 0.00 | 0.00 | 0.00 | 81 | |
| 20260507073914 | 55 | 198 | 3.5 | 4.3 | 0.00 | 0.00 | 0.00 | 81 | |
| 20260507073414 | 55 | 198 | 3.5 | 4.3 | 0.00 | 0.00 | 0.00 | 81 | |
| 20260507072913 | 55 | 198 | 3.5 | 4.3 | 0.00 | 0.00 | 0.00 | 81 | |
| 20260507072412 | 55 | 198 | 3.5 | 4.3 | 0.00 | 0.00 | 0.00 | 81 | |
| 20260507071911 | 55 | 198 | 3.5 | 4.3 | 0.00 | 0.00 | 0.00 | 81 | |
| 20260507071411 | 55 | 198 | 3.5 | 4.3 | 0.00 | 0.00 | 0.00 | 81 | |
| 20260507070910 | 55 | 198 | 3.5 | 4.3 | 0.00 | 0.00 | 0.00 | 81 | |
| 20260507070409 | 55 | 198 | 3.5 | 4.3 | 0.00 | 0.00 | 0.00 | 81 | |
| 20260507065909 | 55 | 198 | 3.5 | 4.3 | 0.00 | 0.00 | 0.00 | 81 | |
| 20260507065408 | 55 | 198 | 3.5 | 4.3 | 0.00 | 0.00 | 0.00 | 81 | |
| 20260507064907 | 55 | 198 | 3.5 | 4.3 | 0.00 | 0.00 | 0.00 | 81 | |
| 20260507064406 | 55 | 198 | 3.5 | 4.3 | 0.00 | 0.00 | 0.00 | 81 | |
| 20260507063906 | 55 | 198 | 3.5 | 4.3 | 0.00 | 0.00 | 0.00 | 81 | |
| 20260507063405 | 55 | 198 | 3.5 | 4.3 | 0.00 | 0.00 | 0.00 | 81 | |
| 20260507062904 | 55 | 198 | 3.5 | 4.3 | 0.00 | 0.00 | 0.00 | 81 | |
| 20260507062404 | 55 | 198 | 3.5 | 4.3 | 0.00 | 0.00 | 0.00 | 81 | |
| 20260507061903 | 55 | 198 | 3.5 | 4.3 | 0.00 | 0.00 | 0.00 | 81 | |
| 20260507061402 | 55 | 198 | 3.5 | 4.3 | 0.00 | 0.00 | 0.00 | 81 | |
| 20260507060902 | 55 | 198 | 3.5 | 4.3 | 0.00 | 0.00 | 0.00 | 81 | |
| 20260507060401 | 55 | 198 | 3.5 | 4.3 | 0.00 | 0.00 | 0.00 | 81 | |
| 20260507055900 | 55 | 163 | 3.5 | 4.3 | 0.00 | 0.00 | 0.00 | 82 | |
| 20260507055400 | 55 | 163 | 3.5 | 4.3 | 0.00 | 0.00 | 0.00 | 82 | |
| 20260507054859 | 52 | 192 | 2.6 | 4.3 | 0.00 | 0.00 | 0.00 | 86 | |
| 20260507054358 | 52 | 192 | 2.6 | 4.3 | 0.00 | 0.00 | 0.00 | 86 | |
| 20260507053858 | 52 | 192 | 2.6 | 4.3 | 0.00 | 0.00 | 0.00 | 86 | |
| 20260507053357 | 52 | 192 | 2.6 | 4.3 | 0.00 | 0.00 | 0.00 | 86 | |
| 20260507052856 | 52 | 192 | 2.6 | 4.3 | 0.00 | 0.00 | 0.00 | 86 | |
| 20260507052355 | 52 | 192 | 2.6 | 4.3 | 0.00 | 0.00 | 0.00 | 86 | |
| 20260507051855 | 52 | 192 | 2.6 | 4.3 | 0.00 | 0.00 | 0.00 | 86 | |
| 20260507051354 | 52 | 192 | 2.6 | 4.3 | 0.00 | 0.00 | 0.00 | 86 | |
| 20260507050853 | 52 | 192 | 2.6 | 4.3 | 0.00 | 0.00 | 0.00 | 86 | |
| 20260507050353 | 52 | 192 | 2.6 | 4.3 | 0.00 | 0.00 | 0.00 | 86 | |
| 20260507045852 | 52 | 192 | 2.6 | 4.3 | 0.00 | 0.00 | 0.00 | 86 | |
| 20260507045351 | 52 | 192 | 2.6 | 4.3 | 0.00 | 0.00 | 0.00 | 86 | |
| 20260507044851 | 52 | 192 | 2.6 | 4.3 | 0.00 | 0.00 | 0.00 | 86 | |
| 20260507044350 | 52 | 192 | 2.6 | 4.3 | 0.00 | 0.00 | 0.00 | 86 | |
| 20260507043850 | 52 | 192 | 2.6 | 4.3 | 0.00 | 0.00 | 0.00 | 86 | |
| 20260507043349 | 52 | 192 | 2.6 | 4.3 | 0.00 | 0.00 | 0.00 | 86 | |
| 20260507042848 | 52 | 192 | 2.6 | 4.3 | 0.00 | 0.00 | 0.00 | 86 | |
| 20260507042348 | 52 | 170 | 0.0 | 0.9 | 0.00 | 0.00 | 0.00 | 87 | |
| 20260507041847 | 52 | 170 | 0.0 | 0.9 | 0.00 | 0.00 | 0.00 | 87 | |
| 20260507041346 | 52 | 170 | 0.0 | 0.9 | 0.00 | 0.00 | 0.00 | 87 | |
| 20260507040845 | 52 | 170 | 0.0 | 0.9 | 0.00 | 0.00 | 0.00 | 87 | |
| 20260507040345 | 52 | 170 | 0.0 | 0.9 | 0.00 | 0.00 | 0.00 | 87 | |
| 20260507035844 | 52 | 170 | 0.0 | 0.9 | 0.00 | 0.00 | 0.00 | 87 | |
| 20260507035343 | 52 | 170 | 0.0 | 0.9 | 0.00 | 0.00 | 0.00 | 87 | |
| 20260507034843 | 52 | 170 | 0.0 | 0.9 | 0.00 | 0.00 | 0.00 | 87 | |
| 20260507034342 | 51 | 138 | 2.6 | 1.7 | 0.00 | 0.00 | 0.00 | 86 | |
| 20260507033841 | 51 | 152 | 1.7 | 2.6 | 0.00 | 0.00 | 0.00 | 86 | |
| 20260507032840 | 51 | 148 | 0.9 | 1.7 | 0.00 | 0.00 | 0.00 | 87 | |
| 20260507032339 | 51 | 137 | 1.7 | 2.6 | 0.00 | 0.00 | 0.00 | 87 | |
| 20260507031839 | 51 | 89 | 0.9 | 1.7 | 0.00 | 0.00 | 0.00 | 87 | |
| 20260507030837 | 51 | 181 | 0.9 | 0.9 | 0.00 | 0.00 | 0.00 | 88 | |
| 20260507030337 | 51 | 181 | 1.7 | 1.7 | 0.00 | 0.00 | 0.00 | 88 | |
| 20260507025836 | 51 | 147 | 0.9 | 0.0 | 0.00 | 0.00 | 0.00 | 88 | |
| 20260507025335 | 51 | 192 | 1.7 | 1.7 | 0.00 | 0.00 | 0.00 | 88 | |
| 20260507024835 | 51 | 192 | 1.7 | 1.7 | 0.00 | 0.00 | 0.00 | 88 | |
| 20260507024334 | 51 | 184 | 2.6 | 4.3 | 0.00 | 0.00 | 0.00 | 88 | |
| 20260507023833 | 51 | 154 | 3.5 | 5.2 | 0.00 | 0.00 | 0.00 | 87 | |
| 20260507023333 | 51 | 216 | 1.7 | 2.6 | 0.00 | 0.00 | 0.00 | 87 | |
| 20260507022832 | 51 | 198 | 3.5 | 4.3 | 0.00 | 0.00 | 0.00 | 88 | |
| 20260507022331 | 51 | 170 | 1.7 | 2.6 | 0.00 | 0.00 | 0.00 | 88 | |
| 20260507021831 | 51 | 180 | 0.9 | 3.5 | 0.00 | 0.00 | 0.00 | 89 | |
| 20260507021330 | 52 | 175 | 0.9 | 1.7 | 0.00 | 0.00 | 0.00 | 88 | |
| 20260507020829 | 51 | 176 | 0.9 | 1.7 | 0.00 | 0.00 | 0.00 | 88 | |
| 20260507020329 | 51 | 165 | 0.9 | 1.7 | 0.00 | 0.00 | 0.00 | 87 | |
| 20260507015828 | 51 | 170 | 0.9 | 1.7 | 0.00 | 0.00 | 0.00 | 88 | |
| 20260507015327 | 51 | 155 | 3.5 | 4.3 | 0.00 | 0.00 | 0.00 | 88 | |
| 20260507014827 | 52 | 144 | 2.6 | 3.5 | 0.00 | 0.00 | 0.00 | 89 | |
| 20260507014326 | 51 | 137 | 0.9 | 0.9 | 0.00 | 0.00 | 0.00 | 89 | |
| 20260507013825 | 51 | 141 | 0.9 | 2.6 | 0.00 | 0.00 | 0.00 | 90 | |
| 20260507013325 | 51 | 182 | 1.7 | 1.7 | 0.00 | 0.00 | 0.00 | 90 | |
| 20260507012824 | 51 | 176 | 1.7 | 2.6 | 0.00 | 0.00 | 0.00 | 89 | |
| 20260507012323 | 51 | 187 | 1.7 | 2.6 | 0.00 | 0.00 | 0.00 | 89 | |
| 20260507011823 | 51 | 169 | 1.7 | 2.6 | 0.00 | 0.00 | 0.00 | 89 | |
| 20260507011322 | 51 | 132 | 0.9 | 0.9 | 0.00 | 0.00 | 0.00 | 89 | |
| 20260507010821 | 51 | 156 | 0.9 | 2.6 | 0.00 | 0.00 | 0.00 | 89 | |
| 20260507010321 | 51 | 69 | 0.0 | 0.9 | 0.00 | 0.00 | 0.00 | 89 | |
| 20260507005820 | 51 | 121 | 1.7 | 1.7 | 0.00 | 0.00 | 0.00 | 89 | |
| 20260507005319 | 52 | 89 | 0.0 | 0.9 | 0.00 | 0.00 | 0.00 | 89 | |
| 20260507004819 | 51 | 135 | 0.0 | 0.9 | 0.00 | 0.00 | 0.00 | 88 | |
| 20260507004318 | 51 | 118 | 0.9 | 1.7 | 0.00 | 0.00 | 0.00 | 88 | |
| 20260507003817 | 51 | 95 | 1.7 | 1.7 | 0.00 | 0.00 | 0.00 | 88 | |
| 20260507003317 | 52 | 131 | 0.9 | 1.7 | 0.00 | 0.00 | 0.00 | 88 | |
| 20260507002816 | 52 | 174 | 0.9 | 1.7 | 0.00 | 0.00 | 0.00 | 88 | |
| 20260507002315 | 52 | 111 | 0.9 | 2.6 | 0.00 | 0.00 | 0.00 | 88 | |
| 20260507001815 | 52 | 140 | 1.7 | 2.6 | 0.00 | 0.00 | 0.00 | 88 | |
| 20260507001314 | 52 | 163 | 0.9 | 1.7 | 0.00 | 0.00 | 0.00 | 88 | |
| 20260507000813 | 52 | 198 | 0.9 | 1.7 | 0.00 | 0.00 | 0.00 | 89 | |
| 20260507000314 | 52 | 180 | 0.0 | 0.0 | 0.00 | 0.00 | 0.00 | 90 | |
| 20260506235812 | 52 | 139 | 0.9 | 1.7 | 0.00 | 0.00 | 0.00 | 90 | |
| 20260506235312 | 52 | 183 | 1.7 | 2.6 | 0.00 | 0.00 | 0.00 | 89 | |
| 20260506234310 | 52 | 203 | 2.6 | 2.6 | 0.00 | 0.00 | 0.00 | 90 | |
| 20260506233809 | 52 | 152 | 0.9 | 0.9 | 0.00 | 0.00 | 0.00 | 90 | |
| 20260506233309 | 51 | 177 | 0.9 | 1.7 | 0.00 | 0.00 | 0.00 | 89 | |
| 20260506232808 | 51 | 162 | 0.9 | 1.7 | 0.00 | 0.00 | 0.00 | 89 | |
| 20260506232307 | 51 | 156 | 0.9 | 2.6 | 0.00 | 0.00 | 0.00 | 89 | |
| 20260506231806 | 52 | 132 | 0.0 | 0.0 | 0.00 | 0.00 | 0.00 | 89 | |
| 20260506231306 | 52 | 112 | 0.0 | 0.0 | 0.00 | 0.00 | 0.00 | 89 | |
| 20260506230805 | 52 | 178 | 0.9 | 1.7 | 0.00 | 0.00 | 0.00 | 89 | |
| 20260506230304 | 52 | 158 | 3.5 | 2.6 | 0.00 | 0.00 | 0.00 | 89 | |
| 20260506225803 | 52 | 158 | 0.9 | 1.7 | 0.00 | 0.00 | 0.00 | 90 | |
| 20260506225305 | 52 | 135 | 1.7 | 1.7 | 0.00 | 0.00 | 0.00 | 89 | |
| 20260506224802 | 52 | 149 | 0.9 | 0.9 | 0.00 | 0.00 | 0.00 | 91 | |
| 20260506224301 | 52 | 185 | 1.7 | 2.6 | 0.00 | 0.00 | 0.00 | 90 | |
| 20260506223800 | 0 | 0.0 | 0.0 | 0.00 | 0.00 | 0.00 | |||
| 20260506223300 | 52 | 144 | 0.9 | 0.9 | 0.00 | 0.00 | 0.00 | 91 | |
| 20260506222759 | 52 | 140 | 2.6 | 3.5 | 0.00 | 0.00 | 0.00 | 91 | |
| 20260506222258 | 52 | 157 | 0.9 | 1.7 | 0.00 | 0.00 | 0.00 | 90 | |
| 20260506221758 | 52 | 133 | 1.7 | 2.6 | 0.00 | 0.00 | 0.00 | 90 | |
| 20260506221257 | 52 | 109 | 0.0 | 0.0 | 0.00 | 0.00 | 0.00 | 90 | |
| 20260506220756 | 52 | 132 | 0.9 | 0.9 | 0.00 | 0.00 | 0.00 | 89 | |
| 20260506220255 | 52 | 201 | 1.7 | 1.7 | 0.00 | 0.00 | 0.00 | 89 | |
| 20260506215755 | 52 | 138 | 0.0 | 0.9 | 0.00 | 0.00 | 0.00 | 89 | |
| 20260506215254 | 52 | 119 | 0.9 | 0.9 | 0.00 | 0.00 | 0.00 | 89 | |
| 20260506214753 | 52 | 166 | 1.7 | 1.7 | 0.00 | 0.00 | 0.00 | 89 | |
| 20260506214253 | 52 | 155 | 1.7 | 1.7 | 0.00 | 0.00 | 0.00 | 90 | |
| 20260506213752 | 52 | 150 | 0.9 | 1.7 | 0.00 | 0.00 | 0.00 | 90 | |
| 20260506213251 | 52 | 165 | 0.9 | 1.7 | 0.00 | 0.00 | 0.00 | 89 | |
| 20260506212751 | 52 | 148 | 0.9 | 0.9 | 0.00 | 0.00 | 0.00 | 90 | |
| 20260506212250 | 52 | 134 | 0.9 | 1.7 | 0.00 | 0.00 | 0.00 | 90 | |
| 20260506211750 | 52 | 140 | 0.9 | 1.7 | 0.00 | 0.00 | 0.00 | 91 | |
| 20260506211249 | 52 | 180 | 0.9 | 1.7 | 0.00 | 0.00 | 0.00 | 90 | |
| 20260506210748 | 52 | 134 | 0.9 | 1.7 | 0.00 | 0.00 | 0.00 | 90 | |
| 20260506210247 | 52 | 115 | 0.9 | 1.7 | 0.00 | 0.00 | 0.00 | 89 | |
| 20260506205747 | 52 | 191 | 1.7 | 2.6 | 0.00 | 0.00 | 0.00 | 89 | |
| 20260506205246 | 52 | 98 | 0.9 | 1.7 | 0.00 | 0.00 | 0.00 | 90 | |
| 20260506204745 | 52 | 174 | 0.9 | 0.9 | 0.00 | 0.00 | 0.00 | 90 | |
| 20260506204245 | 52 | 184 | 1.7 | 1.7 | 0.00 | 0.00 | 0.00 | 90 | |
| 20260506203744 | 52 | 156 | 1.7 | 2.6 | 0.00 | 0.00 | 0.00 | 89 | |
| 20260506203243 | 52 | 165 | 0.9 | 0.9 | 0.00 | 0.00 | 0.00 | 89 | |
| 20260506202742 | 52 | 166 | 1.7 | 2.6 | 0.00 | 0.00 | 0.00 | 90 | |
| 20260506202242 | 52 | 145 | 0.9 | 0.9 | 0.00 | 0.00 | 0.00 | 90 | |
| 20260506201741 | 52 | 126 | 0.0 | 0.9 | 0.00 | 0.00 | 0.00 | 89 | |
| 20260506201240 | 52 | 153 | 0.9 | 1.7 | 0.00 | 0.00 | 0.00 | 89 | |
| 20260506200740 | 52 | 175 | 0.9 | 0.9 | 0.00 | 0.00 | 0.00 | 89 | |
| 20260506200239 | 52 | 133 | 0.9 | 2.6 | 0.00 | 0.00 | 0.00 | 88 | |
| 20260506195738 | 52 | 168 | 1.7 | 1.7 | 0.00 | 0.00 | 0.00 | 88 | |
| 20260506195238 | 52 | 90 | 0.0 | 0.0 | 0.00 | 0.00 | 0.00 | 88 | |
| 20260506194737 | 52 | 154 | 1.7 | 1.7 | 0.00 | 0.00 | 0.00 | 89 | |
| 20260506194236 | 52 | 177 | 0.9 | 1.7 | 0.00 | 0.00 | 0.00 | 89 | |
| 20260506193735 | 52 | 115 | 0.9 | 1.7 | 0.00 | 0.00 | 0.00 | 89 | |
| 20260506193235 | 52 | 197 | 1.7 | 2.6 | 0.00 | 0.00 | 0.00 | 89 | |
| 20260506192734 | 52 | 181 | 1.7 | 1.7 | 0.00 | 0.00 | 0.00 | 89 | |
| 20260506192234 | 52 | 190 | 1.7 | 2.6 | 0.00 | 0.00 | 0.00 | 88 | |
| 20260506191733 | 52 | 187 | 1.7 | 2.6 | 0.00 | 0.00 | 0.00 | 88 | |
| 20260506191233 | 52 | 101 | 0.0 | 0.0 | 0.00 | 0.00 | 0.00 | 89 | |
| 20260506190731 | 52 | 125 | 0.9 | 1.7 | 0.00 | 0.00 | 0.00 | 89 | |
| 20260506190231 | 52 | 91 | 0.9 | 0.9 | 0.00 | 0.00 | 0.00 | 88 | |
| 20260506185730 | 52 | 151 | 0.0 | 0.9 | 0.00 | 0.00 | 0.00 | 88 | |
| 20260506185231 | 52 | 141 | 0.9 | 1.7 | 0.00 | 0.00 | 0.00 | 88 | |
| 20260506184729 | 52 | 181 | 1.7 | 1.7 | 0.00 | 0.00 | 0.00 | 88 | |
| 20260506184228 | 52 | 138 | 1.7 | 2.6 | 0.00 | 0.00 | 0.00 | 88 | |
| 20260506183727 | 52 | 156 | 0.9 | 1.7 | 0.00 | 0.00 | 0.00 | 88 | |
| 20260506183227 | 52 | 140 | 1.7 | 2.6 | 0.00 | 0.00 | 0.00 | 89 | |
| 20260506182726 | 53 | 90 | 0.9 | 0.9 | 0.00 | 0.00 | 0.00 | 89 | |
| 20260506182225 | 52 | 155 | 0.9 | 1.7 | 0.00 | 0.00 | 0.00 | 90 | |
| 20260506181725 | 52 | 139 | 0.0 | 0.0 | 0.00 | 0.00 | 0.00 | 90 | |
| 20260506181224 | 52 | 118 | 0.0 | 0.0 | 0.00 | 0.00 | 0.00 | 89 | |
| 20260506180723 | 52 | 119 | 0.9 | 0.9 | 0.00 | 0.00 | 0.00 | 89 | |
| 20260506180222 | 52 | 85 | 0.9 | 0.9 | 0.00 | 0.00 | 0.00 | 90 | |
| 20260506175722 | 52 | 103 | 0.9 | 0.9 | 0.00 | 0.00 | 0.00 | 89 | |
| 20260506175221 | 52 | 123 | 0.9 | 0.9 | 0.00 | 0.00 | 0.00 | 88 | |
| 20260506174720 | 52 | 113 | 0.0 | 0.0 | 0.00 | 0.00 | 0.00 | 88 | |
| 20260506174220 | 52 | 118 | 0.0 | 0.0 | 0.00 | 0.00 | 0.00 | 88 | |
| 20260506173719 | 52 | 87 | 0.0 | 0.9 | 0.00 | 0.00 | 0.00 | 88 | |
| 20260506173218 | 53 | 94 | 0.9 | 0.9 | 0.00 | 0.00 | 0.00 | 87 | |
| 20260506172717 | 53 | 72 | 0.0 | 0.0 | 0.00 | 0.00 | 0.00 | 87 | |
| 20260506172217 | 53 | 131 | 0.9 | 0.9 | 0.00 | 0.00 | 0.00 | 86 | |
| 20260506171716 | 53 | 118 | 0.0 | 0.0 | 0.00 | 0.00 | 0.00 | 86 | |
| 20260506171215 | 53 | 122 | 0.0 | 0.9 | 0.00 | 0.00 | 0.00 | 87 | |
| 20260506170715 | 54 | 121 | 0.9 | 0.9 | 0.00 | 0.00 | 0.00 | 86 | |
| 20260506170214 | 54 | 102 | 0.0 | 0.0 | 0.00 | 0.00 | 0.00 | 86 | |
| 20260506165713 | 54 | 150 | 0.9 | 0.9 | 0.00 | 0.00 | 0.00 | 84 | |
| 20260506165212 | 55 | 107 | 0.9 | 0.9 | 0.00 | 0.00 | 0.00 | 83 | |
| 20260506164712 | 55 | 109 | 0.0 | 0.9 | 0.00 | 0.00 | 0.00 | 82 | |
| 20260506164211 | 56 | 122 | 0.9 | 0.9 | 0.00 | 0.00 | 0.00 | 80 | |
| 20260506163702 | 56 | 137 | 0.9 | 0.9 | 0.00 | 0.00 | 0.00 | 79 | |
| 20260506163202 | 56 | 144 | 1.7 | 1.7 | 0.00 | 0.00 | 0.00 | 77 | |
| 20260506162701 | 57 | 116 | 0.9 | 0.9 | 0.00 | 0.00 | 0.00 | 75 | |
| 20260506162200 | 58 | 154 | 1.7 | 1.7 | 0.00 | 0.00 | 0.00 | 73 | |
| 20260506161659 | 58 | 11 | 0.9 | 0.9 | 0.00 | 0.00 | 0.00 | 71 | |
| 20260506161159 | 58 | 87 | 0.9 | 1.7 | 0.00 | 0.00 | 0.00 | 73 | |
| 20260506160658 | 59 | 109 | 0.0 | 0.9 | 0.00 | 0.00 | 0.00 | 71 | |
| 20260506160157 | 59 | 146 | 1.7 | 1.7 | 0.00 | 0.00 | 0.00 | 69 | |
| 20260506155657 | 58 | 99 | 1.7 | 1.7 | 0.00 | 0.00 | 0.00 | 68 | |
| 20260506155156 | 59 | 174 | 2.6 | 3.5 | 0.00 | 0.00 | 0.00 | 68 | |
| 20260506154655 | 60 | 164 | 0.9 | 1.7 | 0.00 | 0.00 | 0.00 | 66 | |
| 20260506154155 | 59 | 101 | 0.9 | 0.9 | 0.00 | 0.00 | 0.00 | 69 | |
| 20260506153654 | 59 | 136 | 1.7 | 1.7 | 0.00 | 0.00 | 0.00 | 67 | |
| 20260506153153 | 60 | 90 | 0.9 | 0.9 | 0.00 | 0.00 | 0.00 | 66 | |
| 20260506152652 | 60 | 25 | 0.9 | 0.9 | 0.00 | 0.00 | 0.00 | 66 | |
| 20260506152151 | 60 | 151 | 1.7 | 1.7 | 0.00 | 0.00 | 0.00 | 65 | |
| 20260506151651 | 60 | 125 | 0.9 | 0.9 | 0.00 | 0.00 | 0.00 | 64 | |
| 20260506151150 | 59 | 154 | 0.9 | 1.7 | 0.00 | 0.00 | 0.00 | 67 | |
| 20260506150649 | 58 | 201 | 2.6 | 3.5 | 0.00 | 0.00 | 0.00 | 67 | |
| 20260506150149 | 59 | 196 | 1.7 | 2.6 | 0.00 | 0.00 | 0.00 | 67 | |
| 20260506145648 | 59 | 166 | 1.7 | 2.6 | 0.00 | 0.00 | 0.00 | 65 | |
| 20260506145147 | 60 | 196 | 0.9 | 1.7 | 0.00 | 0.00 | 0.00 | 66 | |
| 20260506144646 | 60 | 158 | 1.7 | 2.6 | 0.00 | 0.00 | 0.00 | 64 | |
| 20260506144146 | 60 | 103 | 0.9 | 1.7 | 0.00 | 0.00 | 0.00 | 66 | |
| 20260506143645 | 61 | 136 | 2.6 | 2.6 | 0.00 | 0.00 | 0.00 | 64 | |
| 20260506143144 | 61 | 179 | 2.6 | 2.6 | 0.00 | 0.00 | 0.00 | 61 | |
| 20260506142644 | 62 | 152 | 2.6 | 2.6 | 0.00 | 0.00 | 0.00 | 61 | |
| 20260506142143 | 60 | 152 | 0.9 | 1.7 | 0.00 | 0.00 | 0.00 | 62 | |
| 20260506141642 | 59 | 177 | 3.5 | 4.3 | 0.00 | 0.00 | 0.00 | 66 | |
| 20260506141141 | 60 | 205 | 2.6 | 4.3 | 0.00 | 0.00 | 0.00 | 62 | |
| 20260506140641 | 62 | 158 | 2.6 | 3.5 | 0.00 | 0.00 | 0.00 | 59 | |
| 20260506140140 | 61 | 184 | 1.7 | 1.7 | 0.00 | 0.00 | 0.00 | 58 | |
| 20260506135639 | 63 | 167 | 0.0 | 1.7 | 0.00 | 0.00 | 0.00 | 56 | |
| 20260506135139 | 62 | 136 | 1.7 | 1.7 | 0.00 | 0.00 | 0.00 | 58 | |
| 20260506134638 | 62 | 77 | 1.7 | 2.6 | 0.00 | 0.00 | 0.00 | 58 | |
| 20260506134137 | 61 | 155 | 2.6 | 4.3 | 0.00 | 0.00 | 0.00 | 61 | |
| 20260506133636 | 59 | 131 | 3.5 | 4.3 | 0.00 | 0.00 | 0.00 | 61 | |
| 20260506133136 | 62 | 153 | 2.6 | 2.6 | 0.00 | 0.00 | 0.00 | 59 | |
| 20260506132635 | 63 | 243 | 0.9 | 1.7 | 0.00 | 0.00 | 0.00 | 55 | |
| 20260506132134 | 60 | 156 | 1.7 | 2.6 | 0.00 | 0.00 | 0.00 | 61 | |
| 20260506131634 | 63 | 157 | 2.6 | 1.7 | 0.00 | 0.00 | 0.00 | 55 | |
| 20260506131133 | 63 | 228 | 0.9 | 1.7 | 0.00 | 0.00 | 0.00 | 56 | |
| 20260506130632 | 61 | 115 | 3.5 | 4.3 | 0.00 | 0.00 | 0.00 | 56 | |
| 20260506130131 | 61 | 108 | 2.6 | 3.5 | 0.00 | 0.00 | 0.00 | 56 | |
| 20260506125631 | 60 | 155 | 2.6 | 2.6 | 0.00 | 0.00 | 0.00 | 58 | |
| 20260506125130 | 59 | 197 | 5.2 | 6.1 | 0.00 | 0.00 | 0.00 | 56 | |
| 20260506124630 | 61 | 185 | 2.6 | 2.6 | 0.00 | 0.00 | 0.00 | 60 | |
| 20260506124129 | 61 | 180 | 3.5 | 4.3 | 0.00 | 0.00 | 0.00 | 59 | |
| 20260506123628 | 61 | 175 | 4.3 | 4.3 | 0.00 | 0.00 | 0.00 | 54 | |
| 20260506123127 | 62 | 180 | 1.7 | 1.7 | 0.00 | 0.00 | 0.00 | 55 | |
| 20260506122627 | 62 | 135 | 3.5 | 5.2 | 0.00 | 0.00 | 0.00 | 56 | |
| 20260506122126 | 62 | 149 | 2.6 | 3.5 | 0.00 | 0.00 | 0.00 | 56 | |
| 20260506121626 | 61 | 155 | 2.6 | 3.5 | 0.00 | 0.00 | 0.00 | 58 | |
| 20260506121125 | 62 | 147 | 2.6 | 3.5 | 0.00 | 0.00 | 0.00 | 56 | |
| 20260506120624 | 62 | 177 | 2.6 | 4.3 | 0.00 | 0.00 | 0.00 | 58 | |
| 20260506120123 | 64 | 101 | 0.9 | 1.7 | 0.00 | 0.00 | 0.00 | 53 | |
| 20260506115623 | 61 | 151 | 4.3 | 4.3 | 0.00 | 0.00 | 0.00 | 58 | |
| 20260506115122 | 62 | 200 | 1.7 | 4.3 | 0.00 | 0.00 | 0.00 | 57 | |
| 20260506114621 | 62 | 9 | 2.6 | 3.5 | 0.00 | 0.00 | 0.00 | 60 | |
| 20260506114121 | 60 | 201 | 3.5 | 4.3 | 0.00 | 0.00 | 0.00 | 60 | |
| 20260506113620 | 60 | 157 | 2.6 | 4.3 | 0.00 | 0.00 | 0.00 | 63 | |
| 20260506113120 | 61 | 186 | 3.5 | 4.3 | 0.00 | 0.00 | 0.00 | 59 | |
| 20260506112618 | 62 | 174 | 0.9 | 0.9 | 0.00 | 0.00 | 0.00 | 56 | |
| 20260506112118 | 60 | 172 | 4.3 | 5.2 | 0.00 | 0.00 | 0.00 | 61 | |
| 20260506111617 | 62 | 147 | 2.6 | 4.3 | 0.00 | 0.00 | 0.00 | 58 | |
| 20260506111116 | 61 | 128 | 1.7 | 3.5 | 0.00 | 0.00 | 0.00 | 60 | |
| 20260506110615 | 61 | 163 | 1.7 | 2.6 | 0.00 | 0.00 | 0.00 | 58 | |
| 20260506110115 | 62 | 204 | 1.7 | 1.7 | 0.00 | 0.00 | 0.00 | 59 | |
| 20260506105614 | 62 | 185 | 3.5 | 4.3 | 0.00 | 0.00 | 0.00 | 55 | |
| 20260506105113 | 62 | 179 | 2.6 | 3.5 | 0.00 | 0.00 | 0.00 | 55 | |
| 20260506104612 | 62 | 145 | 2.6 | 4.3 | 0.00 | 0.00 | 0.00 | 55 | |
| 20260506104112 | 60 | 170 | 3.5 | 3.5 | 0.00 | 0.00 | 0.00 | 62 | |
| 20260506103611 | 59 | 186 | 1.7 | 2.6 | 0.00 | 0.00 | 0.00 | 66 | |
| 20260506103110 | 60 | 124 | 1.7 | 2.6 | 0.00 | 0.00 | 0.00 | 64 | |
| 20260506102610 | 59 | 189 | 2.6 | 3.5 | 0.00 | 0.00 | 0.00 | 69 | |
| 20260506102109 | 59 | 166 | 2.6 | 3.5 | 0.00 | 0.00 | 0.00 | 68 |